IRIDIUM 33 DEB

Satellite information

Favourite Embed

Satellite Type and Status

DEBRISIN ORBIT

Key statistics

Satellite IRIDIUM 33 DEB at a glance.

Uptime

10317

Days in orbit

Revolutions

≈ 14.5

Per day

Orbit

LEO

Low Earth Orbit

Inclination

86.3

Latest

Satellite identification and parameters

Extended collection of information and parameters for IRIDIUM 33 DEB.

Object identification

Identified? True

Debris? True

Object name: IRIDIUM 33 DEB

International designator: 1997-051NX

Object number (NORAD): 35051

Object ID (CCSDS): 35051

Country: UNITED STATES OF AMERICA (US)

Current information (Y/N): Y

RCS size: SMALL

Orbital parameters

Period: 99.476 minutes

Inclination: 86.3243 deg

SMA: 7111.671 km

Apoapsis: 741.115 km

Periapsis: 725.958 km

RAAN: 9.4603 deg

Eccentricy: 0.00106566

Argument of periapsis: 94.8899 deg

Mean anomaly: 265.3522 deg

Mean motion: 14.47588957 rev/day

Mean motion (dot): 0.00003858 rev/day2

B* drag term: 0.001042299 1/REarth

Two-line elements (TLE)

Creation date: Dec. 11, 2025, 7:14 p.m.

Reference frame: TEME

Reference center: EARTH

Epoch: Dec. 11, 2025, 8:47 a.m. UTC

TLE line 0: 0 IRIDIUM 33 DEB

TLE line 1: 1 35051U 97051NX 25345.36663247 .00003858 00000-0 10423-2 0 9998

TLE line 2: 2 35051 86.3243 9.4603 0010657 94.8899 265.3522 14.47588957869769

Live tracking on map

Real-time ground track for satellite IRIDIUM 33 DEB.

In-orbit conjunctions

A list of the most updated potential collisions computed for object IRIDIUM 33 DEB.

Target Orbit TCA Probability of collision Miss distance Type
CZ-6A DEB LEO 2025-09-20 04:15:54 0.0001913358 180.0 (m) DEBRIS
CZ-6A DEB LEO 2025-02-05 11:11:05 0.0001257432 758.0 (m) DEBRIS
CZ-6A DEB SSO 2024-11-10 07:01:54 0.0007258894 467.0 (m) DEBRIS
ORBCOMM-X SSO 2024-10-24 20:00:51 0.0002104756 783.0 (m) PAYLOAD

Associated space launch

Iridium provides global mobile telecommunications services using a constellation of 66 low earth orbit satellites in a 86.4° inclined orbit. Although 77 satellites were originally envisioned for the system and spawned the name based on the 77th element in the periodic table, the system has been scaled back. Motorola's Satellite Communications Group designed and manufactured the Iridium satellites with Lockheed Martin providing the LM-700A spacecraft buses.

IRIDIUM 33 DEB was lifted into orbit during the mission ‘Proton-K/17S40 | Iridium 27 to 33’, on board a Proton-K/17S40 space rocket.

The launch took place on Sept. 14, 1997, 1:36 a.m. from 81/23 (81L).

For more information about the launch, click the button.

Launch to space Proton-K/17S40 | Iridium 27 to 33
Proton-K/17S40 | Iridium 27 to 33

Agency: N/A

Status: Launch Successful

Launch date: Sept. 14, 1997, 1:36 a.m. UTC

Rocket: Proton-K/17S40

Launch pad: 81/23 (81L)

Location: Baikonur Cosmodrome, Republic of Kazakhstan

...

Latest news about this satellite

There are no fresh news available about this satellite. Check back as we update our databases every day.


Newsletter sign-up

Weekly statistics, charts and insights to help you stay on top of the space industry.